Location: Parma
(44.8000°N, 10.3330°E)
Time: 13:45:50
(UTC+01:00)

ISS - Visible Passes

Search period start: 24 January 2019 00:00
Search period end: 03 February 2019 00:00
Orbit: 404 x 410 km, 51.6° (Epoch: 24 January)

Date Brightness Start Highest point End Pass type
(mag) Time Alt. Az. Time Alt. Az. Time Alt. Az.
24 Jan -2.0 17:46:48 10° S 17:49:13 19° SE 17:51:39 10° E visible
24 Jan -2.9 19:22:11 10° WSW 19:24:47 49° W 19:24:47 49° W visible
25 Jan -3.8 18:30:49 10° SW 18:34:05 75° SSE 18:35:41 28° ENE visible
25 Jan -0.5 20:07:55 10° WNW 20:08:24 13° WNW 20:08:24 13° WNW visible
26 Jan -2.7 19:16:14 10° W 19:19:13 38° NNW 19:19:13 38° NNW visible
27 Jan -3.3 18:24:37 10° WSW 18:27:52 54° NNW 18:30:00 19° NE visible
27 Jan -0.7 20:02:06 10° WNW 20:02:43 14° NW 20:02:43 14° NW visible
28 Jan -2.3 19:10:24 10° WNW 19:13:18 27° N 19:13:26 27° N visible
29 Jan -2.6 18:18:40 10° W 18:21:43 33° NNW 18:24:07 14° NE visible
29 Jan -0.9 19:56:06 10° NW 19:56:50 14° NW 19:56:50 14° NW visible
30 Jan -2.2 19:04:28 10° WNW 19:07:15 24° N 19:07:30 24° N visible
31 Jan -2.3 18:12:46 10° WNW 18:15:37 26° N 18:18:09 12° NE visible
31 Jan -1.1 19:49:52 10° NW 19:50:52 17° NW 19:50:52 17° NW visible
01 Feb -2.4 18:58:21 10° NW 19:01:09 25° N 19:01:32 24° NNE visible
02 Feb -2.2 18:06:44 10° NW 18:09:29 24° N 18:12:12 10° ENE visible
02 Feb -1.6 19:43:26 10° NW 19:44:55 22° NW 19:44:55 22° NW visible
